Theta_e
318 321 322 327 326 327 326 323 319 318 318 318 319 320 321 322 324 324 325 319 325 327 327 327 328 328 328 326 327 329 328 325 322 321 320 319 318 317 317 318 318 319 318
317 319 320 324 325 325 323 322 319 318 318 318 317 318 319 322 323 324 324 323 322 325 325 327 328 328 330 330 329 328 326 323 321 319 318 317 316 317 317 317 318 318 317
315 316 318 321 323 325 323 321 318 318 318 318 317 317 317 319 320 321 321 322 321 322 326 327 327 327 328 328 328 326 323 321 320 318 317 316 317 317 318 319 319 318 317
313 315 317 318 323 324 322 319 317 317 316 316 315 316 317 317 318 318 320 320 322 324 322 323 324 324 325 326 326 324 323 320 318 317 315 316 316 317 319 318 317 316 318
311 314 315 317 320 321 319 317 316 317 315 316 316 316 317 319 318 318 319 319 320 318 316 315 315 318 321 322 324 324 322 319 317 315 315 315 315 319 319 319 318 319 320
309 312 313 315 318 322 317 316 314 316 315 315 316 316 317 317 317 317 318 319 317 313 312 313 315 313 316 318 319 321 320 318 315 314 314 314 317 317 318 321 319 319 319
308 312 311 313 317 317 318 316 314 313 313 316 314 310 309 310 309 310 314 310 308 306 306 310 311 309 309 312 313 315 317 316 314 313 314 316 315 316 318 319 319 318 318
307 312 311 313 313 317 317 317 316 314 315 316 312 309 304 306 305 305 304 303 302 303 304 307 306 304 306 308 307 309 312 312 312 312 314 316 317 316 318 319 317 316 316
306 309 310 311 313 315 317 317 316 315 313 315 315 313 306 303 303 304 301 301 301 302 304 304 303 302 304 303 305 305 305 307 309 312 314 315 316 316 316 317 316 315 315
306 307 308 310 312 314 318 318 319 318 315 312 314 312 312 310 304 299 301 299 299 301 303 301 300 299 300 302 301 301 304 304 306 309 311 313 315 315 316 315 314 314 313
306 305 307 308 310 312 315 319 319 318 317 315 314 310 310 312 310 305 299 297 297 297 298 298 297 297 298 300 303 301 303 304 305 307 308 311 312 313 313 313 313 311 310
303 303 304 306 308 310 313 319 321 319 317 317 315 312 311 310 308 310 304 300 299 295 296 296 296 296 297 297 297 297 301 303 305 306 307 309 310 311 311 311 310 309 308
301 301 304 304 306 311 315 320 320 319 318 316 315 313 313 313 310 314 310 304 300 295 294 294 295 296 295 296 298 297 299 303 304 305 306 307 307 308 308 307 307 305 305
300 302 303 304 306 314 317 321 321 319 318 317 316 315 315 313 311 315 313 308 299 296 294 293 293 293 294 295 295 296 299 300 302 304 305 305 305 304 304 304 304 303 303
300 301 302 303 307 318 321 320 320 318 318 317 316 316 314 314 315 317 317 315 309 300 295 291 291 293 296 296 294 298 299 297 301 303 303 303 302 302 301 301 301 301 301
300 300 301 304 312 321 320 320 319 318 316 316 316 315 314 314 317 318 315 314 314 306 295 293 291 293 293 294 293 297 296 296 298 301 300 300 299 299 298 298 298 298 299
298 299 301 305 315 319 320 318 317 316 315 315 315 315 314 314 315 317 317 314 310 309 300 290 291 292 291 291 292 294 296 298 299 298 299 298 297 296 296 295 295 295 295
298 299 301 304 313 317 317 317 314 315 314 312 312 313 312 315 316 313 313 310 307 302 297 290 289 289 290 291 292 293 293 294 297 297 298 297 295 294 294 293 293 293 292
298 299 300 301 305 311 313 314 314 312 311 311 312 313 312 311 307 307 307 303 302 299 297 290 287 289 289 290 289 289 292 293 293 292 296 296 295 294 293 292 292 291 291
297 297 298 299 301 304 306 307 305 303 301 301 301 303 305 306 305 304 303 304 302 296 293 291 289 288 288 288 289 289 288 290 290 291 292 293 294 293 293 291 291 291 290
296 296 297 298 299 299 300 301 301 299 298 296 295 295 295 293 296 300 304 302 298 295 293 290 288 288 286 286 287 289 288 288 288 291 292 292 294 294 293 292 291 291 291
296 295 295 296 296 296 294 295 297 297 296 295 293 292 294 293 294 294 295 296 298 295 293 292 290 289 287 286 286 286 287 285 287 293 291 292 292 292 294 294 293 293 292
294 293 293 294 293 293 293 293 292 295 294 293 294 293 290 290 294 296 292 292 291 294 295 295 294 291 288 287 286 285 286 289 289 288 290 290 291 291 294 293 292 294 292
291 292 292 293 291 291 291 291 291 291 290 290 290 291 294 294 294 293 294 293 292 291 292 293 296 296 294 290 290 290 289 287 286 286 287 288 293 291 294 293 292 293 293
289 289 290 292 292 291 291 291 292 291 288 287 287 287 289 290 288 289 291 289 288 288 287 288 289 290 291 291 292 289 285 285 284 287 284 289 289 288 290 292 293 292 293
287 287 286 288 286 290 290 290 291 290 289 287 287 287 286 289 288 287 288 287 285 287 285 286 287 288 289 290 289 291 290 287 288 286 288 287 284 285 285 289 290 290 291
Wind_Speed
3 3 3 4 0 3 5 8 10 9 9 7 5 6 6 6 7 5 6 7 8 7 7 7 7 8 7 4 7 13 14 13 13 14 14 14 14 15 14 15 15 15 14
2 2 3 3 2 2 4 6 9 8 7 7 6 4 4 5 6 6 6 7 9 7 7 7 8 9 12 11 14 15 14 13 13 13 14 14 14 14 15 13 13 12 13
4 4 2 3 2 5 6 8 7 8 7 7 7 4 1 5 7 7 6 6 7 9 9 9 10 11 15 13 15 16 13 13 14 14 13 13 13 13 12 12 12 13 13
4 3 3 2 5 5 6 7 8 8 8 8 7 5 3 2 6 7 6 5 5 6 10 14 13 12 12 15 14 13 13 14 13 13 13 12 12 12 14 14 14 11 12
2 1 2 2 5 3 7 7 8 9 9 9 8 6 4 4 5 4 7 7 8 7 6 13 15 15 13 14 13 13 14 12 12 12 12 11 11 14 13 13 10 13 17
3 1 3 2 3 3 3 8 8 9 10 9 8 6 5 4 3 3 6 7 8 8 7 6 5 10 15 14 14 13 12 11 11 11 11 10 12 13 14 15 13 17 19
2 1 3 3 3 3 7 10 10 9 7 9 8 6 6 7 7 5 5 6 8 7 7 6 4 5 6 12 13 12 11 11 10 11 9 11 11 12 13 16 17 18 18
3 2 3 3 3 4 3 9 9 8 6 10 6 4 4 4 6 7 5 6 7 5 5 7 6 7 5 5 9 13 12 10 10 9 10 10 10 11 14 16 17 17 18
4 3 4 4 4 3 4 8 10 10 7 9 9 2 4 3 3 3 6 5 5 4 5 6 6 7 7 6 5 7 9 9 9 10 10 11 11 12 13 15 17 16 18
4 3 3 4 5 4 6 7 8 6 10 9 5 2 2 6 4 4 3 4 4 4 5 4 5 6 5 5 5 8 7 6 7 10 11 13 12 12 13 15 17 18 18
4 3 2 5 6 5 5 11 11 9 8 6 7 3 2 3 6 4 3 3 2 3 4 3 4 4 5 2 3 6 7 6 9 9 11 14 13 12 15 15 16 16 15
4 4 4 3 7 8 8 8 11 10 9 7 5 5 4 3 3 5 4 3 3 2 2 2 4 2 1 3 3 5 8 8 10 10 11 11 13 14 15 16 15 14 15
4 6 6 4 5 9 10 8 9 9 9 9 10 6 3 2 3 4 9 4 3 2 2 1 1 1 1 1 1 3 9 9 8 10 10 11 13 14 16 15 14 13 15
5 8 7 6 7 10 11 9 9 8 9 8 10 7 5 3 3 6 6 8 3 2 3 3 1 2 1 1 3 4 6 7 8 9 10 12 13 13 14 13 12 12 14
6 7 8 7 6 12 13 10 7 9 9 8 9 8 5 3 4 4 5 7 7 4 4 4 3 4 3 2 2 4 3 8 8 8 10 12 12 13 13 11 11 12 12
7 7 7 6 5 11 10 10 8 8 8 6 7 9 6 3 4 4 4 3 1 3 4 2 2 3 4 3 2 3 4 4 8 8 9 12 12 12 9 9 9 11 11
7 8 7 5 5 12 11 9 8 8 8 7 7 8 8 6 5 3 4 4 3 2 5 2 2 4 4 4 3 1 1 3 4 5 10 11 10 7 7 8 9 10 10
6 6 6 5 5 8 9 10 8 6 7 7 7 7 7 5 7 4 3 4 5 4 4 5 3 2 2 3 4 2 2 2 3 7 8 9 9 6 6 8 7 7 9
6 6 7 9 6 6 7 6 6 6 6 5 6 7 7 7 5 3 5 5 5 4 5 5 4 2 3 4 3 2 1 1 1 5 4 7 8 7 4 4 5 6 6
6 7 8 9 9 8 8 8 8 8 8 8 7 7 6 5 5 6 5 6 6 6 6 7 4 4 2 3 3 4 4 3 3 1 0 0 5 6 5 2 3 3 3
6 7 9 10 9 9 5 9 9 9 10 10 8 7 6 6 8 6 5 7 8 5 5 4 4 3 4 4 7 5 4 3 5 5 4 4 4 5 5 6 4 5 2
9 10 10 9 10 7 12 13 10 9 9 8 8 5 5 7 8 8 10 9 6 8 6 4 3 4 5 4 5 5 4 4 5 6 5 6 4 5 5 4 5 7 5
8 9 9 9 11 9 12 13 10 7 7 6 7 6 5 3 6 8 10 12 7 4 3 5 6 6 6 8 8 7 7 5 4 3 6 6 5 7 6 6 9 9 8
8 7 8 8 10 9 14 12 10 7 6 6 6 4 6 4 3 5 6 5 3 2 1 2 4 4 5 9 11 9 9 4 1 2 4 4 5 5 5 6 11 9 11
7 8 7 9 11 10 13 12 8 8 8 8 6 7 6 7 8 6 3 3 2 2 4 8 7 6 3 6 7 6 5 6 5 4 6 2 2 4 5 6 7 13 14
5 4 7 7 6 7 11 11 7 4 7 4 6 6 10 7 6 6 4 3 1 1 3 3 3 4 3 3 8 7 5 6 3 3 6 6 4 3 4 3 5 6 8
Wind_Direction
299 323 309 276 120 159 145 138 131 127 124 114 97 112 116 124 139 136 120 77 73 95 93 72 67 55 46 77 79 95 79 64 54 48 39 26 19 14 9 9 4 360 4
282 296 305 262 221 213 141 126 126 129 127 128 116 87 113 133 131 143 130 108 80 68 72 71 62 59 47 93 94 77 68 58 52 45 38 27 21 13 11 5 10 4 6
309 290 275 311 203 203 150 137 120 126 130 124 110 107 4 141 135 137 140 132 117 67 68 83 74 62 56 74 75 68 58 50 48 43 34 26 22 18 5 3 23 26 33
309 308 314 310 288 147 148 149 147 145 133 130 128 136 132 138 128 135 130 136 130 98 71 62 60 55 56 52 59 65 57 49 40 37 30 22 19 11 33 37 43 39 36
308 330 290 268 291 150 157 147 154 155 140 137 138 131 116 134 118 116 118 116 102 98 92 68 58 48 51 53 38 50 55 47 43 31 30 23 14 16 23 23 39 39 44
303 326 301 256 250 168 148 149 147 159 153 141 132 130 126 122 107 120 126 108 104 94 84 71 56 57 49 50 36 35 43 49 44 38 34 24 21 29 24 41 53 51 44
253 138 266 292 249 221 166 164 150 152 143 145 137 93 71 65 60 45 89 96 85 76 70 79 66 61 53 55 42 27 34 44 44 42 34 30 34 40 33 42 50 49 44
284 218 215 246 262 227 220 153 146 151 150 156 155 114 130 91 55 45 62 78 85 91 91 81 73 69 59 61 41 35 31 40 44 43 32 28 46 46 45 47 48 44 42
290 248 239 237 247 270 220 168 154 162 152 160 158 129 140 133 133 40 49 69 86 96 98 91 77 67 64 61 48 53 37 35 35 38 26 29 42 55 51 51 50 47 47
299 280 270 247 228 232 178 170 174 153 155 169 152 69 28 134 139 138 86 62 74 81 79 74 73 64 60 61 69 38 21 36 27 22 36 35 35 56 62 57 53 46 46
311 284 285 271 231 224 221 187 185 157 163 165 164 135 109 120 115 139 146 158 91 69 67 66 78 63 56 50 55 44 4 43 28 25 38 34 35 55 60 58 56 49 45
300 298 292 264 239 225 218 207 184 163 160 152 142 146 166 159 160 151 124 133 136 102 76 72 75 93 79 64 57 29 12 39 38 41 46 47 51 57 64 61 57 45 45
325 297 302 290 250 218 218 210 175 162 161 165 163 164 156 143 138 142 128 137 134 122 159 78 100 107 85 56 100 3 35 34 47 55 61 60 60 63 62 60 58 54 50
294 303 306 289 261 202 196 177 169 165 164 164 167 160 155 151 156 167 146 147 126 145 184 140 137 150 122 172 56 34 49 24 47 59 69 68 65 63 61 58 57 56 56
307 305 302 296 269 197 179 160 164 162 161 162 168 164 153 174 176 178 154 164 144 161 194 184 170 184 163 146 29 93 71 30 41 74 82 76 72 68 61 57 58 56 53
308 312 314 306 247 160 152 160 155 158 153 161 154 161 151 153 174 164 147 156 159 119 137 137 162 149 158 126 78 89 73 61 44 86 88 84 74 68 67 63 61 59 51
326 326 323 321 154 146 147 145 147 151 152 144 153 162 170 166 182 171 153 130 129 137 117 105 117 142 138 143 147 114 92 63 75 81 97 93 89 86 80 75 63 60 55
335 322 338 17 112 138 135 151 143 142 151 152 154 156 150 162 168 152 132 107 111 85 119 133 121 131 136 162 162 170 94 31 37 32 116 112 112 104 90 81 71 64 62
348 352 25 37 49 101 110 116 124 134 128 135 142 155 142 141 127 115 99 100 117 105 96 130 129 139 107 157 134 98 121 192 25 3 62 140 135 118 99 77 68 57 56
29 30 33 45 45 58 69 80 86 84 80 72 67 67 86 112 129 118 115 128 123 107 111 114 110 127 132 151 169 172 180 196 197 205 163 112 181 155 139 81 66 41 41
48 55 54 48 51 55 55 85 84 86 89 77 64 62 63 82 93 115 142 137 132 119 125 125 122 138 161 164 196 180 203 191 225 216 201 199 186 198 183 193 206 237 216
33 44 43 49 56 52 62 72 92 96 89 101 100 85 84 88 84 97 110 112 141 144 156 142 158 194 183 172 147 172 153 183 216 191 209 220 214 224 221 211 214 230 214
50 45 40 48 58 48 58 82 87 100 108 111 124 111 86 60 105 107 87 94 90 107 178 172 182 196 175 183 157 170 187 199 200 145 201 236 194 228 212 220 220 216 217
43 45 52 55 66 47 43 46 66 76 74 64 65 82 98 123 104 122 129 126 144 114 99 252 239 216 205 171 184 188 183 171 87 156 195 227 182 228 206 218 217 224 220
55 57 44 56 60 46 41 36 63 62 57 53 40 42 46 53 37 28 69 85 48 31 7 9 337 317 297 181 186 138 160 165 212 217 194 246 182 246 234 227 211 218 227
69 63 60 52 45 65 49 55 74 114 94 76 57 52 60 86 70 52 77 113 83 329 352 2 354 12 1 215 193 215 177 196 166 203 183 199 178 204 276 225 234 221 223